Wind_Speed
16 15 15 14 14 13 13 13 13 13 12 13 13 12 12 12 12 12 12 13 13 13 14 14 14 15 15 15 16 16 16 16 15 15 15 15 15 15 15 15 16 17 17
17 17 17 16 15 15 15 14 14 14 14 14 14 13 13 13 13 13 13 14 14 14 15 15 16 16 17 16 16 16 17 17 16 16 16 16 16 17 17 17 18 18 18
19 18 18 17 17 17 17 16 16 16 15 15 15 14 14 14 14 14 14 14 15 15 16 16 17 18 18 18 17 18 18 18 18 17 17 18 18 18 18 19 19 19 19
20 20 20 20 19 19 19 19 18 18 17 17 16 16 16 16 16 15 15 15 15 16 16 17 17 18 19 19 19 19 20 20 19 19 19 19 19 20 20 20 20 21 21
22 22 21 21 20 20 19 19 19 18 18 18 18 18 18 17 17 17 17 17 17 18 18 19 19 19 20 20 21 21 21 21 21 20 20 20 21 21 21 22 22 22 23
22 22 22 21 21 21 20 19 20 20 20 21 21 20 20 19 19 19 19 19 19 20 20 21 21 21 21 21 22 22 22 22 22 22 23 23 23 23 23 23 23 23 24
23 23 22 22 22 22 20 20 19 20 21 21 21 21 20 20 20 20 19 20 21 22 22 22 22 22 23 22 22 22 23 24 24 24 25 25 25 25 25 25 25 25 25
24 24 24 24 23 23 23 21 20 21 21 21 21 21 21 21 21 21 22 22 21 22 22 22 23 23 24 24 24 23 23 24 25 26 26 26 26 26 26 26 26 26 26
25 24 23 23 22 22 24 23 22 23 23 22 22 22 22 22 22 22 23 24 24 23 23 23 24 24 24 25 24 24 24 25 26 27 26 26 27 27 27 26 26 26 26
25 25 24 24 24 23 24 26 25 25 24 23 23 23 23 23 23 23 25 25 25 24 24 24 24 25 25 25 25 25 25 26 26 27 27 27 27 27 27 27 27 27 27
24 24 25 26 25 25 25 26 26 26 25 25 25 25 25 25 25 25 25 26 26 26 25 25 25 26 26 26 26 26 27 26 26 27 27 27 27 27 27 28 28 28 29
26 25 25 26 26 26 26 26 27 27 26 26 25 26 26 26 26 26 25 26 26 26 26 26 26 26 26 26 26 27 27 27 27 28 28 28 28 28 28 29 29 30 30
27 26 26 26 25 26 27 26 27 27 26 26 26 26 27 26 27 26 26 27 27 27 26 26 26 26 26 26 27 27 28 28 28 28 29 29 28 29 29 29 29 30 31
28 27 27 27 27 27 27 27 27 26 26 26 26 26 26 26 26 26 26 27 28 28 28 27 27 27 27 27 28 28 29 29 29 29 30 30 30 29 29 30 30 30 30
28 28 28 28 29 29 28 27 26 26 27 27 27 26 26 26 27 27 27 28 28 28 28 28 28 29 29 28 28 28 29 29 29 29 30 30 30 30 29 29 30 30 30
26 27 28 28 29 28 27 27 27 26 27 27 27 27 27 28 28 28 28 28 29 28 28 28 27 27 27 28 29 29 30 29 29 30 30 31 30 29 29 29 29 30 30
26 26 26 26 27 27 27 27 27 27 27 27 28 28 29 29 29 29 28 28 28 28 27 26 26 27 27 27 28 28 28 28 27 28 28 29 29 29 28 28 28 29 29
25 25 24 24 25 26 27 27 28 28 28 28 29 29 29 29 30 29 28 28 28 27 27 27 27 27 27 27 27 27 26 26 26 26 25 26 27 27 27 27 28 28 29
25 25 25 25 26 26 26 27 28 28 29 30 30 30 29 29 29 29 28 28 29 28 28 27 27 27 26 26 25 25 25 25 25 25 26 26 25 26 26 26 26 27 27
24 24 25 25 26 26 26 26 27 28 29 30 30 30 30 30 29 29 29 29 29 28 28 26 26 26 26 26 25 24 24 24 25 25 26 26 25 26 26 26 26 26 27
23 24 24 25 25 25 25 26 27 28 29 29 30 30 29 29 29 29 29 29 29 27 26 26 26 26 26 26 26 25 25 25 26 26 26 27 27 27 27 27 27 27 28
23 24 24 25 25 25 25 26 27 27 28 28 29 29 29 29 29 29 29 29 28 27 27 26 26 25 25 25 26 26 25 26 26 26 27 27 27 27 27 28 28 28 29
23 24 24 25 25 26 27 27 27 28 27 27 27 27 28 28 28 27 26 26 26 26 25 26 26 26 26 27 26 26 26 26 26 27 28 28 28 28 28 28 28 29 30
24 24 24 25 24 25 25 26 25 26 27 28 28 28 27 27 27 26 26 26 25 25 26 26 26 26 27 27 27 27 27 27 27 28 28 28 27 28 28 28 29 29 29
24 24 25 24 24 24 25 25 25 25 26 26 27 27 27 26 25 25 25 25 26 26 26 27 27 27 27 27 27 26 27 27 28 28 28 27 27 27 28 28 29 29 29
23 23 23 23 23 23 23 24 24 24 24 24 24 25 25 25 25 25 25 25 25 25 26 27 27 27 27 27 27 27 28 28 29 29 28 28 28 28 29 29 29 29 29
Wind_Direction
266 266 264 264 267 272 273 278 283 288 291 295 296 293 289 288 287 286 283 280 278 274 270 268 268 269 272 277 280 282 283 282 281 281 282 282 283 283 283 284 283 281 278
265 264 263 259 263 268 270 272 277 281 285 289 291 289 287 287 287 284 283 278 276 276 273 272 272 272 273 278 280 281 281 282 281 282 282 281 282 282 282 282 283 282 280
266 266 266 258 258 264 267 269 271 276 280 283 286 285 286 286 286 284 282 281 278 276 275 275 276 275 275 278 280 280 279 278 279 279 281 282 282 283 283 283 284 283 281
264 265 266 263 263 263 263 265 267 270 275 278 280 282 284 283 282 282 282 282 280 278 278 278 277 276 277 278 279 279 278 278 279 279 279 282 284 284 284 284 283 283 282
262 262 264 264 265 266 264 263 266 268 271 275 278 280 281 280 278 279 279 280 278 279 280 280 279 277 277 277 277 277 277 277 277 279 280 282 283 283 284 284 284 283 283
265 266 263 266 264 267 263 263 265 266 269 274 276 276 277 279 277 279 279 278 278 280 280 279 278 277 276 277 277 276 275 276 277 279 280 281 282 282 283 284 283 282 283
265 265 266 266 265 262 264 267 265 266 269 272 273 274 276 278 278 278 280 280 279 279 279 278 278 277 277 278 278 277 275 274 277 279 281 282 282 282 282 283 282 283 283
264 265 266 265 265 263 263 266 265 265 268 270 270 272 275 277 278 279 280 282 283 281 280 280 279 277 278 277 278 279 279 278 278 280 281 282 282 282 282 282 281 282 282
263 265 263 265 267 267 264 263 265 266 267 269 272 272 274 275 277 279 280 282 284 284 283 282 283 281 282 281 279 279 281 281 279 279 282 281 281 281 280 281 281 280 281
264 265 265 265 266 269 267 264 266 266 264 266 269 271 273 275 278 278 278 281 283 284 284 283 282 280 281 282 282 282 282 281 280 280 281 281 280 280 281 280 280 280 280
264 267 267 267 266 269 269 267 266 266 266 268 269 270 272 275 277 279 280 282 283 283 282 282 282 280 281 282 283 282 281 280 279 281 283 283 281 281 282 281 280 280 280
264 267 269 268 268 268 268 268 267 267 268 268 271 272 274 274 276 279 281 283 283 281 280 280 281 280 282 283 282 282 282 281 281 282 283 283 283 282 281 282 282 282 281
264 266 268 267 267 269 268 269 270 269 270 269 270 271 273 275 276 279 281 282 282 281 280 280 281 281 281 282 282 282 283 283 283 283 283 281 282 282 282 283 283 282 282
265 265 265 265 266 268 268 268 268 269 269 270 271 272 274 276 277 279 281 282 282 282 282 282 282 282 283 283 284 283 282 281 282 282 282 281 282 283 284 284 283 283 283
263 263 263 263 265 266 266 267 268 268 269 270 271 272 275 276 277 277 279 281 282 282 283 284 284 284 283 283 283 283 283 283 283 282 282 282 283 283 283 282 283 284 284
265 264 265 266 266 265 266 266 266 268 269 271 272 273 275 277 277 278 280 280 281 281 283 284 286 287 287 286 284 283 283 284 284 283 282 282 282 282 283 283 283 284 284
267 268 268 267 266 266 267 266 267 269 269 269 271 273 275 276 277 278 280 281 282 283 284 283 286 286 286 286 285 284 284 283 284 284 284 281 282 283 283 283 284 284 285
269 269 268 269 269 268 268 267 267 268 268 270 271 273 275 276 276 277 279 280 281 282 282 283 284 285 285 285 284 283 282 282 282 283 284 284 284 284 284 284 285 284 284
271 270 268 269 271 271 269 269 269 269 269 271 272 273 275 275 275 276 277 279 279 280 281 281 282 283 283 284 284 282 281 281 282 283 284 286 285 286 286 286 287 287 286
271 270 268 269 271 270 270 270 270 271 271 272 272 273 274 274 275 276 277 278 279 280 280 279 280 280 282 283 283 283 281 281 282 285 285 284 284 285 286 286 287 288 288
270 271 271 270 272 273 270 270 272 272 271 271 272 272 273 274 274 275 276 277 279 280 280 279 280 279 280 282 283 284 284 284 286 286 287 285 284 286 286 286 288 287 287
270 271 272 272 273 273 274 274 274 273 272 272 272 272 272 273 274 275 276 276 276 277 278 278 278 278 279 282 283 284 284 284 286 287 288 287 286 286 286 286 286 286 285
272 272 272 272 273 274 274 274 273 273 274 274 274 274 272 272 274 276 276 275 275 274 274 275 276 276 279 281 283 284 284 285 285 286 287 286 285 286 287 286 286 285 285
273 272 272 273 272 273 275 276 276 276 275 274 273 270 270 273 275 275 274 274 274 274 273 274 275 277 280 281 283 283 283 284 285 286 286 286 287 287 287 286 286 286 285
274 272 273 274 274 275 277 278 278 278 277 276 273 271 271 273 274 273 274 275 275 275 275 276 277 278 281 281 282 283 285 286 286 286 286 286 287 287 288 287 287 287 287
274 272 272 273 275 276 277 278 277 277 278 276 274 274 274 274 274 274 274 275 275 275 276 277 278 280 281 280 281 283 285 286 285 284 284 286 288 289 289 288 288 287 286
Height
5845 5845 5845 5845 5845 5845 5844 5844 5844 5843 5843 5842 5842 5841 5841 5840 5840 5839 5838 5837 5837 5837 5836 5836 5836 5836 5836 5835 5834 5833 5833 5832 5831 5830 5829 5828 5827 5825 5824 5823 5822 5821 5820
5840 5841 5840 5839 5840 5840 5840 5840 5840 5840 5839 5839 5838 5837 5837 5836 5836 5835 5834 5833 5833 5833 5832 5832 5832 5832 5831 5831 5830 5829 5828 5827 5826 5825 5824 5823 5822 5821 5819 5818 5816 5815 5814
5836 5835 5835 5834 5834 5835 5835 5835 5835 5835 5835 5835 5834 5833 5833 5832 5831 5831 5830 5829 5829 5828 5828 5828 5827 5827 5826 5826 5825 5824 5823 5822 5821 5820 5819 5818 5816 5815 5813 5812 5811 5810 5808
5830 5830 5830 5829 5829 5830 5829 5829 5830 5830 5830 5830 5829 5829 5828 5827 5827 5826 5825 5825 5824 5824 5823 5823 5822 5821 5821 5820 5820 5818 5817 5817 5815 5814 5813 5812 5810 5809 5807 5806 5805 5804 5803
5823 5823 5823 5824 5824 5823 5823 5823 5824 5824 5825 5825 5824 5823 5823 5822 5822 5821 5820 5820 5819 5819 5818 5817 5817 5816 5815 5814 5814 5813 5812 5811 5810 5808 5807 5806 5804 5802 5801 5800 5798 5797 5796
5816 5816 5815 5816 5817 5817 5816 5817 5818 5818 5819 5819 5819 5817 5817 5816 5816 5816 5815 5814 5813 5813 5812 5811 5810 5810 5809 5808 5807 5806 5805 5804 5803 5802 5801 5799 5798 5796 5794 5793 5791 5790 5789
5810 5810 5809 5810 5811 5811 5811 5810 5811 5813 5813 5813 5812 5811 5810 5810 5810 5809 5809 5808 5807 5806 5805 5805 5804 5803 5802 5801 5800 5799 5798 5797 5796 5795 5794 5792 5791 5789 5788 5786 5784 5783 5781
5803 5803 5803 5804 5804 5804 5804 5804 5806 5806 5807 5807 5806 5805 5805 5804 5804 5803 5802 5801 5800 5799 5798 5798 5797 5796 5795 5794 5792 5791 5790 5789 5788 5787 5786 5784 5782 5781 5779 5778 5777 5775 5774
5796 5796 5797 5797 5797 5797 5797 5797 5799 5800 5800 5800 5799 5799 5798 5798 5797 5797 5796 5795 5793 5793 5791 5790 5789 5788 5787 5786 5785 5784 5783 5781 5780 5778 5777 5776 5774 5773 5771 5770 5769 5768 5766
5789 5789 5790 5791 5791 5791 5791 5791 5791 5792 5792 5792 5792 5792 5791 5791 5790 5789 5789 5788 5786 5785 5784 5783 5782 5781 5780 5778 5777 5776 5775 5774 5772 5770 5769 5768 5766 5765 5763 5762 5761 5760 5758
5782 5782 5783 5783 5784 5784 5784 5783 5784 5785 5784 5784 5784 5784 5784 5783 5782 5782 5781 5780 5779 5778 5777 5776 5774 5772 5771 5770 5769 5768 5767 5766 5764 5763 5761 5760 5758 5757 5755 5754 5752 5751 5750
5774 5775 5775 5776 5776 5776 5776 5776 5777 5777 5777 5777 5776 5776 5776 5775 5775 5774 5773 5772 5771 5770 5769 5767 5766 5764 5763 5762 5760 5759 5758 5757 5756 5755 5753 5752 5750 5748 5747 5745 5744 5742 5741
5766 5767 5767 5768 5768 5768 5768 5769 5769 5769 5769 5769 5769 5769 5768 5768 5767 5766 5766 5764 5763 5761 5760 5759 5757 5756 5755 5754 5752 5751 5749 5748 5747 5746 5745 5743 5741 5739 5738 5736 5735 5733 5731
5757 5758 5759 5760 5760 5760 5760 5760 5761 5761 5761 5761 5761 5761 5760 5760 5759 5758 5757 5756 5754 5752 5751 5750 5749 5748 5746 5745 5743 5742 5740 5739 5737 5736 5735 5734 5732 5730 5728 5727 5725 5724 5722
5748 5750 5750 5751 5752 5752 5752 5752 5752 5753 5753 5753 5753 5752 5752 5751 5751 5750 5749 5748 5746 5745 5743 5742 5740 5739 5737 5735 5734 5732 5731 5729 5728 5727 5726 5724 5723 5721 5719 5717 5716 5715 5713
5740 5741 5741 5742 5743 5743 5744 5744 5744 5745 5745 5745 5745 5744 5743 5743 5742 5742 5740 5739 5737 5735 5735 5733 5732 5730 5728 5726 5725 5723 5722 5720 5719 5717 5716 5715 5713 5712 5710 5708 5707 5705 5704
5732 5732 5733 5733 5734 5735 5735 5736 5736 5736 5736 5736 5736 5735 5735 5734 5733 5732 5731 5730 5728 5727 5726 5724 5723 5721 5719 5717 5716 5714 5712 5711 5709 5708 5706 5705 5704 5702 5701 5700 5698 5696 5695
5723 5724 5724 5725 5726 5726 5727 5727 5727 5727 5727 5727 5727 5726 5725 5725 5724 5723 5722 5721 5720 5718 5717 5716 5714 5712 5710 5709 5707 5705 5704 5703 5701 5699 5698 5696 5695 5694 5692 5691 5689 5687 5686
5715 5716 5716 5717 5717 5717 5717 5717 5718 5718 5718 5718 5717 5717 5716 5715 5714 5713 5712 5711 5710 5709 5708 5707 5705 5704 5702 5701 5699 5698 5696 5695 5693 5692 5690 5688 5687 5685 5684 5683 5681 5679 5677
5707 5708 5708 5708 5708 5708 5708 5708 5708 5708 5708 5708 5708 5707 5706 5706 5705 5704 5703 5702 5701 5700 5699 5698 5697 5695 5694 5693 5691 5690 5688 5687 5685 5684 5682 5680 5679 5677 5676 5674 5673 5671 5668
5700 5700 5700 5700 5700 5700 5699 5699 5699 5699 5698 5698 5698 5697 5697 5696 5695 5695 5694 5693 5692 5690 5689 5689 5688 5687 5686 5684 5683 5682 5680 5679 5677 5676 5674 5672 5670 5669 5667 5665 5663 5661 5659
5692 5692 5692 5692 5692 5691 5691 5690 5690 5689 5689 5688 5688 5688 5687 5687 5686 5685 5684 5683 5682 5682 5681 5680 5679 5678 5677 5676 5675 5674 5672 5671 5669 5667 5665 5664 5662 5660 5658 5656 5654 5652 5650
5684 5684 5684 5684 5684 5683 5683 5682 5681 5681 5680 5680 5679 5679 5678 5677 5677 5676 5675 5674 5673 5673 5672 5671 5671 5670 5668 5667 5666 5665 5664 5662 5661 5659 5657 5655 5653 5651 5649 5647 5645 5643 5641
5676 5676 5676 5676 5675 5675 5674 5674 5673 5673 5672 5671 5670 5670 5669 5668 5668 5667 5666 5666 5665 5664 5663 5663 5662 5661 5660 5659 5657 5656 5655 5653 5651 5649 5647 5645 5643 5641 5639 5637 5635 5633 5631
5669 5669 5668 5668 5667 5667 5666 5665 5665 5664 5663 5662 5661 5660 5660 5659 5659 5658 5658 5657 5656 5655 5654 5654 5653 5652 5651 5649 5648 5647 5645 5644 5642 5640 5637 5635 5633 5631 5629 5627 5625 5624 5622
5661 5660 5660 5659 5659 5658 5658 5657 5657 5656 5655 5654 5653 5652 5651 5651 5650 5650 5649 5648 5647 5646 5646 5645 5644 5643 5641 5640 5639 5637 5636 5634 5632 5630 5628 5626 5624 5622 5620 5618 5616 5614 5612